Home > Weather > Irving > Past weeks

Flag for USA Weather for the Past 2 Weeks in Irving, Texas, USA

Now
73 °F

Partly cloudy.


Feels Like: 71 °F
Forecast: 65 / 77 °F
Wind: 3 mph from Northeast

Location: Dallas / Fort Worth International Airport

Current Time: Apr 30, 2016 at 12:15:47 AM

Latest Report: Apr 29, 2016 at 10:53 PM


Visibility: 8 mi

Pressure: 29.58 "Hg

Humidity: 88%

Dew Point: 69 °F

Location of IrvingLocation

Historic Weather in Irving — Graph

°F

Irving Temperature Yesterday

Maximum temperature yesterday: 85 °F (at 1:53 PM)
Minimum temperature yesterday: 73 °F (at 2:53 AM)
Average temperature yesterday: 77 °F

High & Low Weather Summary for the Past Weeks

 TemperatureHumidityPressure
High85 °F (Apr 25, 3:53 PM)97% (Apr 15, 7:53 AM)30.15 "Hg (Apr 15, 7:53 AM)
Low55 °F (Apr 15, 5:53 AM)25% (Apr 27, 3:53 PM)29.51 "Hg (Apr 26, 7:53 PM)
Average71 °F68%29.87 "Hg
* Reported Apr 14 10:53 PM — Apr 29 10:53 PM, Irving, Weather by CustomWeather, © 2016

Note: Actual official high and low records may vary slightly from our data, if they occured in-between our weather recording intervals... More about our weather records

Advertising

Irving Weather History for the Previous 24 Hours

Scroll right to see more
 ConditionsComfort  
Time TempWeatherWind HumidityBarometerVisibility
10:53 PM
Fri, Apr 29
73 °FPartly cloudy.3 mph88%29.58 "Hg8 mi
9:53 PM76 °FPartly cloudy.15 mph77%29.56 "Hg10 mi
8:53 PM74 °FPartly sunny.7 mph88%29.54 "Hg7 mi
7:53 PM75 °FBroken clouds.8 mph82%29.54 "Hg9 mi
6:53 PM76 °FBroken clouds.8 mph77%29.51 "Hg10 mi
5:53 PM74 °FBroken clouds.13 mph74%29.52 "Hg10 mi
4:53 PM79 °FThunderstorms. Cloudy.14 mph84%29.52 "Hg3 mi
3:53 PM83 °FCloudy.10 mph72%29.53 "Hg5 mi
2:53 PM83 °FBroken clouds.13 mph72%29.55 "Hg5 mi
1:53 PM85 °FPartly sunny.14 mph61%29.59 "Hg7 mi
12:53 PM83 °FBroken clouds.10 mph70%29.63 "Hg6 mi
11:53 AM80 °FBroken clouds.12 mph76%29.66 "Hg6 mi
10:53 AM79 °FBroken clouds.5 mph79%29.67 "Hg6 mi
9:53 AM77 °FCloudy.7 mph82%29.67 "Hg6 mi
8:53 AM77 °FCloudy.10 mph82%29.67 "Hg7 mi
7:53 AM76 °FMostly cloudy.13 mph82%29.67 "Hg7 mi
6:53 AM76 °FPartly cloudy.12 mph82%29.66 "Hg8 mi
5:53 AM75 °FPartly cloudy.10 mph82%29.65 "Hg8 mi
4:53 AM74 °FPartly cloudy.10 mph82%29.66 "Hg9 mi
3:53 AM73 °FPassing clouds.10 mph76%29.67 "Hg10 mi
2:53 AM73 °FPartly cloudy.8 mph71%29.70 "Hg10 mi
1:53 AM74 °FPartly cloudy.12 mph64%29.72 "Hg10 mi
12:53 AM74 °FMostly cloudy.13 mph64%29.73 "Hg10 mi
Weather by CustomWeather, © 2016

See weather overviewHow to use our weather pages